[[{"header":{"parameterUnit":"m.s-1","parameterCategory":1,"la1":30.2991,"la2":30.254,"lo1":-89.0895,"lo2":-89.0444,"dy":0.0017,"dx":0.0017,"nx":28,"ny":28,"refTime":"2024-08-15T03:00:00:Z","depth":0,"parameterNumber":2,"parameterNumberName":"U-component_of_WINDS"},"data":[0,0,0,0,0,0,0,0,0,0,0,0,0,0,0,0,0,0,0,0,0,0,0,0,0,0,0,0,0,0,0,0,0,0,0,0,0,0,0,0,0,0,0,0,0,0,0,0,0,0,0,0,0,0,0,0,0,0,2.0068,2.0069,0,2.0179,2.018,2.0182,2.0182,2.018,2.0179,2.0178,2.0291,2.0295,2.0299,0,0,0,0,0,0,0,0,0,0,0,0,0,1.9856,1.9859,2.0068,2.0069,2.0071,2.0179,2.0181,2.0182,2.0182,2.018,2.0179,2.0177,2.0289,2.0295,2.03,0,0,0,0,0,0,0,0,0,0,0,0,0,1.9955,1.9861,2.0068,2.0084,2.0086,2.0179,2.0181,2.0182,2.0182,2.018,2.0178,2.0176,2.0288,2.0294,2.03,2.0384,0,0,2.032,2.0323,0,0,0,0,0,0,0,0,1.995,1.9963,2.008,2.0083,2.0086,2.0164,2.0147,2.025,2.0183,2.0146,2.0178,2.0175,2.025,2.026,2.0285,2.0389,2.0394,2.0321,2.0325,2.0328,2.033,0,0,0,0,0,0,0,1.9943,1.9958,2.0112,2.0082,2.0085,2.0085,2.0097,2.0167,2.0209,2.0149,2.0149,2.0163,2.0252,2.0279,2.0288,2.0396,2.0321,2.0327,2.0331,2.0333,2.0573,2.0576,0,0,0,0,0,0,1.9933,1.9953,2.0108,2.0115,2.0011,2.0091,2.0104,2.0141,2.0208,2.0216,2.0164,2.0162,2.0269,2.0281,2.0292,2.0394,2.0328,2.0334,2.0338,2.0571,2.0574,2.0576,0,0,0,0,0,0,1.9928,1.9947,2.0104,2.0034,2.0054,2.0097,2.0139,2.0145,2.0172,2.022,2.0227,2.0185,2.0268,2.0283,2.0361,2.0398,2.0337,2.0343,2.0568,2.0572,2.0575,2.0598,0,0,0,0,0,0,1.9922,1.9945,1.9977,2.0035,2.0058,2.0171,2.0141,2.0148,2.0184,2.0182,2.0241,2.0248,2.0267,2.0351,2.0368,2.0406,2.0348,2.0565,2.057,2.0574,2.0594,2.0602,2.0609,0,0,0,0,0,1.9914,1.9979,1.9979,1.9997,2.0099,2.0173,2.0186,2.0207,2.0187,2.0219,2.025,2.0247,2.0391,2.0359,2.0378,2.0418,2.0563,2.0568,2.0574,2.0591,2.06,2.0609,0,0,0,0,0,0,1.9924,1.9987,1.9987,2.0072,2.0118,2.0173,2.0215,2.0217,2.0268,2.0264,2.0288,2.0301,2.0379,2.0407,2.037,2.0502,2.0474,2.0484,2.0481,2.0491,2.0498,2.0489,2.0353,0,0,0,0,0,1.9936,1.9991,2.0043,2.0113,2.0136,2.0172,2.0205,2.0217,2.0264,2.0283,2.032,2.0366,2.0422,2.0458,2.0512,2.0598,2.0611,2.0635,2.0643,2.0648,2.0656,2.0703,2.0715,2.0595,2.0595,2.0594,0,0,1.9962,2.0003,2.0036,2.0116,2.0153,2.0209,2.0188,2.0248,2.029,2.0293,2.0368,2.0397,2.045,2.0532,2.0571,2.0558,2.0692,2.0656,2.066,2.0664,2.071,2.0722,2.0732,2.0598,2.0598,2.0597,0,0,2.0037,2.0074,2.0136,2.0173,2.0228,2.0252,2.0267,2.0323,2.0341,2.0418,2.0421,2.0471,2.0567,2.0605,2.0636,2.0726,2.0725,2.0743,2.0781,2.0827,2.0836,2.0845,2.0876,2.0887,2.0751,2.0751,2.0751,0,2.0061,2.0146,2.0168,2.0229,2.0264,2.0269,2.0332,2.0367,2.0437,2.0461,2.0446,2.0567,2.0603,2.0694,2.0716,2.0742,2.0759,2.0736,2.0833,2.0842,2.085,2.088,2.0892,2.0753,2.0753,2.0752,2.0752,0,2.0173,2.0233,2.0276,2.0344,2.0384,2.0446,2.0477,2.0515,2.0524,2.0548,2.0626,2.067,2.0733,2.0756,2.0765,2.0848,2.0839,2.0828,2.0801,2.0863,2.0892,2.0904,2.0755,2.0755,2.0754,2.0754,0,0,2.0257,2.0336,2.0351,2.0382,2.0444,2.049,2.0552,2.0614,2.0646,2.0695,2.0747,2.0828,2.0819,2.0855,2.0869,2.0909,2.0977,2.0894,2.0895,2.0907,2.1071,2.1077,2.109,2.0977,2.0979,2.0981,2.1066,0,2.0337,2.0448,2.0469,2.0565,2.0619,2.0625,2.0679,2.0723,2.0748,2.0798,2.0826,2.0883,2.0867,2.0889,2.0929,2.096,2.101,2.0954,2.1025,2.1027,2.101,2.1106,2.1113,2.1191,2.1077,2.1079,2.1081,0,2.0446,2.0498,2.0599,2.0653,2.0677,2.0725,2.0783,2.0831,2.0881,2.0897,2.0937,2.0946,2.1011,2.0981,2.107,2.1032,2.1062,2.1082,2.1085,2.1092,2.1057,2.1114,2.1216,2.1228,2.1099,2.1097,2.1096,0,2.0496,2.059,2.0663,2.0689,2.0755,2.0789,2.0817,2.0865,2.0901,2.0952,2.0975,2.1033,2.1065,2.1109,2.1134,2.111,2.1221,2.1193,2.1235,2.1234,2.1257,2.1255,2.1365,2.1279,2.1278,2.1278,2.1278,0,2.0583,2.0645,2.0686,2.073,2.0799,2.0824,2.0891,2.092,2.0962,2.1012,2.1022,2.1068,2.1098,2.115,2.1169,2.124,2.1254,2.1268,2.1272,2.1266,2.1265,2.1286,2.1281,2.1281,2.1281,2.128,2.1279,0,2.0649,2.068,2.0759,2.0815,2.0831,2.0879,2.0927,2.097,2.0996,2.1059,2.1075,2.1115,2.1176,2.1205,2.128,2.1293,2.1373,2.1374,2.1356,2.1357,2.1397,2.1392,2.1524,2.1542,2.1444,2.1445,2.1446,0,2.0703,2.075,2.0811,2.0845,2.0875,2.093,2.0967,2.0993,2.1031,2.1091,2.1127,2.1188,2.1238,2.1335,2.1371,2.1428,2.143,2.1472,2.1439,2.1431,2.143,2.1426,2.1431,2.1478,2.1479,2.1479,2.148,0,2.0794,2.0806,2.0859,2.0917,2.096,2.1007,2.1053,2.1081,2.1114,2.1156,2.1218,2.1257,2.1334,2.1394,2.1454,2.1484,2.1488,2.1491,2.1503,2.1497,2.1484,2.1491,2.1371,2.1487,2.1486,2.1486,2.1485,2.1485,2.0854,2.0897,2.0946,2.1004,2.1042,2.1085,2.1128,2.1159,2.1212,2.1276,2.1289,2.1354,2.1403,2.1484,2.1516,2.1568,2.1558,2.1577,2.1581,2.1585,2.1587,2.1477,2.1579,2.1579,2.1579,2.1579,2.1579,0,2.0945,2.0977,2.103,2.1095,2.114,2.114,2.1191,2.123,2.1287,2.1333,2.1382,2.1453,2.1512,2.1553,2.1612,2.1646,2.1649,2.1661,2.1658,2.1664,2.1592,2.1575,2.1657,2.1657,2.1657,2.1657,2.1657,2.1657,2.0997,2.1068,2.1087,2.1177,2.1209,2.1274,2.1303,2.1342,2.1379,2.1458,2.1507,2.1533,2.1577,2.1639,2.1693,2.1704,2.1725,2.1736,2.1746,2.1678,2.167,2.1662,2.1645,2.1741,2.1741,2.1814,2.1815,2.1815]},{"header":{"parameterUnit":"m.s-1","parameterCategory":1,"la1":30.2991,"la2":30.254,"lo1":-89.0895,"lo2":-89.0444,"dy":0.0017,"dx":0.0017,"nx":28,"ny":28,"refTime":"2024-08-15T03:00:00:Z","depth":0,"parameterNumber":3,"parameterNumberName":"V-component_of_WINDS"},"data":[0,0,0,0,0,0,0,0,0,0,0,0,0,0,0,0,0,0,0,0,0,0,0,0,0,0,0,0,0,0,0,0,0,0,0,0,0,0,0,0,0,0,0,0,0,0,0,0,0,0,0,0,0,0,0,0,0,0,-0.9342,-0.9343,0,-0.9408,-0.9409,-0.941,-0.9443,-0.9443,-0.9443,-0.9443,-0.9511,-0.9513,-0.9515,0,0,0,0,0,0,0,0,0,0,0,0,0,-0.9245,-0.9247,-0.9342,-0.9343,-0.9344,-0.9408,-0.9409,-0.941,-0.9443,-0.9443,-0.9443,-0.9443,-0.951,-0.9513,-0.9515,0,0,0,0,0,0,0,0,0,0,0,0,0,-0.9297,-0.9247,-0.9342,-0.9368,-0.9371,-0.9408,-0.9409,-0.941,-0.9443,-0.9443,-0.9443,-0.9443,-0.951,-0.9512,-0.9515,-0.9532,0,0,-0.9523,-0.9525,0,0,0,0,0,0,0,0,-0.9294,-0.93,-0.9363,-0.9366,-0.9369,-0.9417,-0.94,-0.9451,-0.9443,-0.9415,-0.9443,-0.9443,-0.948,-0.9485,-0.9497,-0.9535,-0.9538,-0.9524,-0.9525,-0.9526,-0.9527,0,0,0,0,0,0,0,-0.929,-0.9298,-0.9368,-0.9364,-0.9368,-0.9376,-0.9384,-0.941,-0.9447,-0.9418,-0.942,-0.9428,-0.9482,-0.9495,-0.9499,-0.9539,-0.9524,-0.9526,-0.9528,-0.9529,-0.9595,-0.9595,0,0,0,0,0,0,-0.9282,-0.9294,-0.9366,-0.937,-0.9331,-0.9378,-0.9386,-0.9402,-0.9447,-0.9453,-0.9428,-0.9429,-0.949,-0.9496,-0.9502,-0.9525,-0.9526,-0.9529,-0.9531,-0.9595,-0.9595,-0.9595,0,0,0,0,0,0,-0.928,-0.9288,-0.9364,-0.9333,-0.9343,-0.938,-0.9397,-0.9403,-0.9416,-0.9454,-0.9461,-0.9434,-0.949,-0.9498,-0.9524,-0.9528,-0.953,-0.9533,-0.9595,-0.9595,-0.9595,-0.9572,0,0,0,0,0,0,-0.9277,-0.9287,-0.9294,-0.9333,-0.9345,-0.9384,-0.9397,-0.9404,-0.9421,-0.9423,-0.9462,-0.9468,-0.9491,-0.952,-0.9527,-0.9532,-0.9535,-0.9595,-0.9595,-0.9595,-0.9572,-0.9571,-0.957,0,0,0,0,0,-0.9274,-0.9284,-0.9294,-0.9302,-0.9353,-0.9384,-0.9391,-0.9417,-0.9421,-0.9428,-0.9453,-0.9467,-0.9527,-0.9523,-0.9531,-0.9536,-0.9595,-0.9595,-0.9595,-0.9573,-0.9571,-0.957,0,0,0,0,0,0,-0.9244,-0.929,-0.9301,-0.9325,-0.935,-0.939,-0.9399,-0.9414,-0.9439,-0.9441,-0.9472,-0.948,-0.9504,-0.9523,-0.9518,-0.9556,-0.9562,-0.9564,-0.9542,-0.9541,-0.954,-0.9535,-0.9537,0,0,0,0,0,-0.924,-0.9262,-0.93,-0.9317,-0.933,-0.9362,-0.9377,-0.9394,-0.9423,-0.9434,-0.946,-0.9487,-0.9512,-0.9528,-0.9553,-0.9575,-0.9585,-0.9583,-0.9582,-0.9581,-0.9582,-0.9597,-0.9597,-0.9596,-0.9596,-0.9596,0,0,-0.9233,-0.926,-0.9272,-0.9312,-0.9334,-0.9356,-0.9371,-0.9393,-0.941,-0.9437,-0.9464,-0.9484,-0.9516,-0.9541,-0.9554,-0.9558,-0.9585,-0.9581,-0.958,-0.9582,-0.9597,-0.9597,-0.9597,-0.9597,-0.9597,-0.9597,0,0,-0.923,-0.9253,-0.927,-0.9292,-0.9326,-0.9347,-0.9351,-0.9389,-0.9404,-0.9431,-0.9452,-0.9473,-0.9515,-0.9537,-0.9554,-0.9562,-0.9576,-0.9569,-0.9563,-0.9576,-0.9577,-0.9577,-0.958,-0.9581,-0.957,-0.957,-0.957,0,-0.9217,-0.925,-0.9277,-0.9298,-0.9316,-0.9342,-0.936,-0.938,-0.942,-0.9432,-0.9436,-0.949,-0.9513,-0.9544,-0.9546,-0.9559,-0.9565,-0.9564,-0.9574,-0.9575,-0.9575,-0.9579,-0.958,-0.9569,-0.9569,-0.9569,-0.9569,0,-0.9232,-0.9255,-0.9264,-0.9303,-0.9321,-0.9341,-0.9372,-0.9387,-0.9404,-0.9425,-0.9453,-0.9483,-0.9515,-0.9523,-0.9539,-0.9557,-0.9559,-0.9568,-0.9575,-0.9574,-0.9578,-0.9579,-0.9567,-0.9568,-0.9568,-0.9568,0,0,-0.9211,-0.9265,-0.9268,-0.9286,-0.9326,-0.9344,-0.9366,-0.9397,-0.941,-0.9437,-0.9456,-0.9492,-0.9501,-0.952,-0.9539,-0.9551,-0.9556,-0.956,-0.9561,-0.9558,-0.9579,-0.9572,-0.9573,-0.9567,-0.9567,-0.9567,-0.9576,0,-0.9215,-0.9253,-0.9279,-0.9308,-0.933,-0.9355,-0.9374,-0.9401,-0.9422,-0.9444,-0.9467,-0.9492,-0.9502,-0.9514,-0.9528,-0.9553,-0.9561,-0.9553,-0.9585,-0.9586,-0.9576,-0.9574,-0.9567,-0.9574,-0.9578,-0.9578,-0.9578,0,-0.9223,-0.925,-0.928,-0.9319,-0.9329,-0.9345,-0.9376,-0.9397,-0.9428,-0.9443,-0.9465,-0.9484,-0.9509,-0.9514,-0.9548,-0.9542,-0.9557,-0.9572,-0.9573,-0.9577,-0.9582,-0.9579,-0.9576,-0.9577,-0.9581,-0.9581,-0.9581,0,-0.9206,-0.9249,-0.9274,-0.9288,-0.9333,-0.9344,-0.9363,-0.9395,-0.9412,-0.944,-0.9452,-0.9482,-0.9498,-0.9521,-0.9549,-0.955,-0.9581,-0.9588,-0.9594,-0.9594,-0.9599,-0.9599,-0.96,-0.9609,-0.9609,-0.9609,-0.9609,0,-0.9206,-0.9224,-0.9267,-0.9281,-0.9303,-0.9333,-0.9353,-0.9375,-0.9403,-0.9423,-0.9447,-0.9466,-0.9501,-0.9524,-0.9546,-0.9572,-0.9579,-0.9592,-0.9598,-0.959,-0.9588,-0.96,-0.96,-0.9609,-0.9609,-0.9609,-0.9609,0,-0.919,-0.9219,-0.9248,-0.9288,-0.9299,-0.9313,-0.9348,-0.9364,-0.9387,-0.9412,-0.942,-0.9456,-0.9484,-0.9514,-0.9553,-0.9568,-0.9593,-0.9601,-0.9582,-0.9586,-0.959,-0.9589,-0.9599,-0.9602,-0.9608,-0.9608,-0.9608,0,-0.9189,-0.9204,-0.9246,-0.9261,-0.928,-0.9304,-0.9322,-0.9352,-0.9371,-0.9408,-0.942,-0.945,-0.9476,-0.9521,-0.9551,-0.9581,-0.959,-0.9591,-0.9595,-0.9587,-0.9591,-0.9589,-0.9591,-0.959,-0.959,-0.9589,-0.9589,0,-0.9183,-0.9197,-0.9222,-0.9253,-0.9274,-0.9299,-0.9325,-0.9337,-0.9373,-0.9392,-0.9421,-0.9442,-0.9482,-0.9512,-0.9546,-0.9567,-0.9584,-0.9588,-0.9591,-0.9583,-0.9572,-0.9579,-0.9579,-0.9588,-0.9588,-0.9588,-0.9588,-0.9588,-0.9175,-0.919,-0.9222,-0.9249,-0.9272,-0.9297,-0.9314,-0.9339,-0.9364,-0.9399,-0.9416,-0.9446,-0.9478,-0.9526,-0.9546,-0.9571,-0.9576,-0.958,-0.9581,-0.9582,-0.958,-0.9568,-0.9577,-0.9577,-0.9577,-0.9577,-0.9577,0,-0.9171,-0.9194,-0.9218,-0.9255,-0.9277,-0.9291,-0.9321,-0.9339,-0.9365,-0.9393,-0.9418,-0.9453,-0.9483,-0.9516,-0.9548,-0.9561,-0.957,-0.9569,-0.9568,-0.9573,-0.9573,-0.9568,-0.9561,-0.9561,-0.9561,-0.9561,-0.9561,-0.9561,-0.9172,-0.9197,-0.9215,-0.9253,-0.9275,-0.9304,-0.9321,-0.9344,-0.9367,-0.9404,-0.9429,-0.945,-0.9481,-0.9516,-0.9544,-0.9553,-0.9564,-0.956,-0.9572,-0.9571,-0.9573,-0.9574,-0.9569,-0.9562,-0.9562,-0.9569,-0.9569,-0.9569]}]]